Time,TemperatureF,DewpointF,PressureIn,WindDirection,WindDirectionDegrees,WindSpeedMPH,WindSpeedGustMPH,Humidity,HourlyPrecipIn,Conditions,Clouds,dailyrainin,SoftwareType,DateUTC
2013-11-02 00:02:00,43.7,24.8,30.06,SSW,213,4.0,5.0,47,0.00,CLR,CLR,0.00,WeatherDisplay:10.34,2013-11-02 06:02:00,
2013-11-02 00:07:00,42.6,24.3,30.06,SE,144,9.0,13.0,48,0.00,CLR,CLR,0.00,WeatherDisplay:10.34,2013-11-02 06:07:00,
2013-11-02 00:12:00,41.2,24.4,30.06,SE,136,3.0,9.0,51,0.00,CLR,CLR,0.00,WeatherDisplay:10.34,2013-11-02 06:12:00,
2013-11-02 00:17:00,40.6,25.2,30.06,SE,132,3.0,3.0,54,0.00,CLR,CLR,0.00,WeatherDisplay:10.34,2013-11-02 06:17:00,
2013-11-02 00:22:00,39.8,24.9,30.05,East,99,3.0,3.0,55,0.00,CLR,CLR,0.00,WeatherDisplay:10.34,2013-11-02 06:22:00,
2013-11-02 00:27:00,39.1,25.1,30.05,NNE,33,3.0,3.0,57,0.00,CLR,CLR,0.00,WeatherDisplay:10.34,2013-11-02 06:27:00,
2013-11-02 00:32:00,37.6,24.6,30.05,WNW,287,4.0,7.0,59,0.00,CLR,CLR,0.00,WeatherDisplay:10.34,2013-11-02 06:32:00,
2013-11-02 00:37:00,37.5,24.9,30.05,East,86,10.0,10.0,60,0.00,CLR,CLR,0.00,WeatherDisplay:10.34,2013-11-02 06:37:00,
2013-11-02 00:42:00,37.3,25.1,30.05,ENE,68,8.0,9.0,61,0.00,CLR,CLR,0.00,WeatherDisplay:10.34,2013-11-02 06:42:00,
2013-11-02 00:47:00,37.1,25.3,30.05,SE,134,2.0,2.0,62,0.00,CLR,CLR,0.00,WeatherDisplay:10.34,2013-11-02 06:47:00,
2013-11-02 00:52:00,37.1,25.7,30.05,SE,141,6.0,7.0,63,0.00,CLR,CLR,0.00,WeatherDisplay:10.34,2013-11-02 06:52:00,
2013-11-02 00:57:00,37.0,25.9,30.05,ESE,111,6.0,7.0,64,0.00,CLR,CLR,0.00,WeatherDisplay:10.34,2013-11-02 06:57:00,
2013-11-02 01:02:00,36.7,25.7,30.05,East,98,2.0,7.0,64,0.00,CLR,CLR,0.00,WeatherDisplay:10.34,2013-11-02 07:02:00,
2013-11-02 01:07:00,36.2,25.2,30.05,SE,146,7.0,8.0,64,0.00,CLR,CLR,0.00,WeatherDisplay:10.34,2013-11-02 07:07:00,
2013-11-02 01:12:00,35.7,25.4,30.05,SE,146,4.0,4.0,66,0.00,CLR,CLR,0.00,WeatherDisplay:10.34,2013-11-02 07:12:00,
2013-11-02 01:17:00,35.3,25.4,30.05,SE,146,0.0,1.0,67,0.00,CLR,CLR,0.00,WeatherDisplay:10.34,2013-11-02 07:17:00,
2013-11-02 01:22:00,35.0,25.1,30.05,SE,146,0.0,1.0,67,0.00,CLR,CLR,0.00,WeatherDisplay:10.34,2013-11-02 07:22:00,
2013-11-02 01:27:00,34.6,25.1,30.05,SE,146,0.0,0.0,68,0.00,CLR,CLR,0.00,WeatherDisplay:10.34,2013-11-02 07:27:00,
2013-11-02 01:32:00,34.4,24.9,30.05,SE,146,0.0,0.0,68,0.00,CLR,CLR,0.00,WeatherDisplay:10.34,2013-11-02 07:32:00,
2013-11-02 01:37:00,33.9,24.8,30.05,SE,142,1.0,2.0,69,0.00,CLR,CLR,0.00,WeatherDisplay:10.34,2013-11-02 07:37:00,
2013-11-02 01:42:00,33.0,23.9,30.04,NNW,342,2.0,2.0,69,0.00,CLR,CLR,0.00,WeatherDisplay:10.34,2013-11-02 07:42:00,
2013-11-02 01:47:00,32.2,23.8,30.04,WNW,287,1.0,2.0,71,0.00,CLR,CLR,0.00,WeatherDisplay:10.34,2013-11-02 07:47:00,
2013-11-02 01:52:00,31.6,23.9,30.05,WNW,287,4.0,5.0,73,0.00,CLR,CLR,0.00,WeatherDisplay:10.34,2013-11-02 07:52:00,
2013-11-02 01:57:00,31.1,23.8,30.05,WNW,287,1.0,3.0,74,0.00,CLR,CLR,0.00,WeatherDisplay:10.34,2013-11-02 07:57:00,
2013-11-02 02:02:00,30.7,23.7,30.03,WNW,287,3.0,3.0,75,0.00,CLR,CLR,0.00,WeatherDisplay:10.34,2013-11-02 08:02:00,
2013-11-02 02:07:00,30.6,23.9,30.03,WNW,287,0.0,1.0,76,0.00,CLR,CLR,0.00,WeatherDisplay:10.34,2013-11-02 08:07:00,
2013-11-02 02:12:00,30.5,23.8,30.04,WNW,287,3.0,3.0,76,0.00,CLR,CLR,0.00,WeatherDisplay:10.34,2013-11-02 08:12:00,
2013-11-02 02:17:00,30.3,23.6,30.04,WNW,287,5.0,5.0,76,0.00,CLR,CLR,0.00,WeatherDisplay:10.34,2013-11-02 08:17:00,
2013-11-02 02:22:00,30.1,23.8,30.03,WNW,287,1.0,2.0,77,0.00,CLR,CLR,0.00,WeatherDisplay:10.34,2013-11-02 08:22:00,
2013-11-02 02:27:00,29.9,23.6,30.03,West,276,2.0,3.0,77,0.00,CLR,CLR,0.00,WeatherDisplay:10.34,2013-11-02 08:27:00,
2013-11-02 02:32:00,29.9,23.9,30.03,West,277,3.0,3.0,78,0.00,CLR,CLR,0.00,WeatherDisplay:10.34,2013-11-02 08:32:00,
2013-11-02 02:37:00,29.7,23.7,30.03,WNW,288,4.0,5.0,78,0.00,CLR,CLR,0.00,WeatherDisplay:10.34,2013-11-02 08:37:00,
2013-11-02 02:42:00,29.6,23.9,30.03,WNW,288,3.0,3.0,79,0.00,CLR,CLR,0.00,WeatherDisplay:10.34,2013-11-02 08:42:00,
2013-11-02 02:47:00,29.4,23.7,30.03,NW,311,2.0,5.0,79,0.00,CLR,CLR,0.00,WeatherDisplay:10.34,2013-11-02 08:47:00,
2013-11-02 02:52:00,29.2,23.5,30.03,NW,314,0.0,1.0,79,0.00,CLR,CLR,0.00,WeatherDisplay:10.34,2013-11-02 08:52:00,
2013-11-02 02:57:00,29.0,23.3,30.03,NW,315,3.0,5.0,79,0.00,CLR,CLR,0.00,WeatherDisplay:10.34,2013-11-02 08:57:00,
2013-11-02 03:02:00,29.0,23.3,30.03,NW,315,3.0,3.0,79,0.00,CLR,CLR,0.00,WeatherDisplay:10.34,2013-11-02 09:02:00,
2013-11-02 03:07:00,28.8,23.4,30.03,NW,314,0.0,0.0,80,0.00,CLR,CLR,0.00,WeatherDisplay:10.34,2013-11-02 09:07:00,
2013-11-02 03:12:00,28.8,23.7,30.03,NW,315,0.0,1.0,81,0.00,CLR,CLR,0.00,WeatherDisplay:10.34,2013-11-02 09:12:00,
2013-11-02 03:17:00,28.8,23.7,30.03,NW,314,1.0,1.0,81,0.00,CLR,CLR,0.00,WeatherDisplay:10.34,2013-11-02 09:17:00,
2013-11-02 03:22:00,28.8,23.7,30.03,NW,314,0.0,0.0,81,0.00,CLR,CLR,0.00,WeatherDisplay:10.34,2013-11-02 09:22:00,
2013-11-02 03:27:00,28.7,23.3,30.03,NW,315,1.0,1.0,80,0.00,CLR,CLR,0.00,WeatherDisplay:10.34,2013-11-02 09:27:00,
2013-11-02 03:32:00,28.7,23.6,30.03,NW,315,2.0,2.0,81,0.00,CLR,CLR,0.00,WeatherDisplay:10.34,2013-11-02 09:32:00,
2013-11-02 03:37:00,28.6,23.5,30.03,NW,314,1.0,1.0,81,0.00,CLR,CLR,0.00,WeatherDisplay:10.34,2013-11-02 09:37:00,
2013-11-02 03:42:00,28.5,23.4,30.02,NW,315,3.0,3.0,81,0.00,CLR,CLR,0.00,WeatherDisplay:10.34,2013-11-02 09:42:00,
2013-11-02 03:47:00,28.5,23.4,30.02,NW,315,2.0,2.0,81,0.00,CLR,CLR,0.00,WeatherDisplay:10.34,2013-11-02 09:47:00,
2013-11-02 03:52:00,28.5,23.4,30.01,NW,315,3.0,3.0,81,0.00,CLR,CLR,0.00,WeatherDisplay:10.34,2013-11-02 09:52:00,
2013-11-02 03:57:00,28.5,23.7,30.01,NW,315,0.0,0.0,82,0.00,CLR,CLR,0.00,WeatherDisplay:10.34,2013-11-02 09:57:00,
2013-11-02 04:02:00,28.5,23.7,30.00,NW,314,3.0,3.0,82,0.00,CLR,CLR,0.00,WeatherDisplay:10.34,2013-11-02 10:02:00,
2013-11-02 04:07:00,28.6,23.8,30.00,NW,315,5.0,5.0,82,0.00,CLR,CLR,0.00,WeatherDisplay:10.34,2013-11-02 10:07:00,
2013-11-02 04:12:00,28.4,23.3,30.00,NW,315,4.0,5.0,81,0.00,CLR,CLR,0.00,WeatherDisplay:10.34,2013-11-02 10:12:00,
2013-11-02 04:17:00,28.3,23.2,30.00,NW,315,1.0,2.0,81,0.00,CLR,CLR,0.00,WeatherDisplay:10.34,2013-11-02 10:17:00,
2013-11-02 04:22:00,28.2,23.4,30.00,NW,322,5.0,5.0,82,0.00,CLR,CLR,0.00,WeatherDisplay:10.34,2013-11-02 10:22:00,
2013-11-02 04:27:00,28.3,23.5,30.00,NW,322,1.0,2.0,82,0.00,CLR,CLR,0.00,WeatherDisplay:10.34,2013-11-02 10:27:00,
2013-11-02 04:32:00,28.3,23.5,30.00,WNW,294,3.0,5.0,82,0.00,CLR,CLR,0.00,WeatherDisplay:10.34,2013-11-02 10:32:00,
2013-11-02 04:37:00,28.3,23.8,30.00,WNW,303,5.0,5.0,83,0.00,CLR,CLR,0.00,WeatherDisplay:10.34,2013-11-02 10:37:00,
2013-11-02 04:42:00,28.2,23.4,29.99,NW,304,6.0,6.0,82,0.00,CLR,CLR,0.00,WeatherDisplay:10.34,2013-11-02 10:42:00,
2013-11-02 04:47:00,27.9,23.1,29.99,NW,304,1.0,1.0,82,0.00,CLR,CLR,0.00,WeatherDisplay:10.34,2013-11-02 10:47:00,
2013-11-02 04:52:00,27.8,23.0,30.00,NW,304,1.0,2.0,82,0.00,CLR,CLR,0.00,WeatherDisplay:10.34,2013-11-02 10:52:00,
2013-11-02 04:57:00,27.7,23.2,30.00,NW,304,0.0,1.0,83,0.00,CLR,CLR,0.00,WeatherDisplay:10.34,2013-11-02 10:57:00,
2013-11-02 05:02:00,27.7,23.5,30.00,NW,304,2.0,3.0,84,0.00,CLR,CLR,0.00,WeatherDisplay:10.34,2013-11-02 11:02:00,
2013-11-02 05:07:00,27.8,23.6,30.00,NW,304,3.0,3.0,84,0.00,CLR,CLR,0.00,WeatherDisplay:10.34,2013-11-02 11:07:00,
2013-11-02 05:12:00,27.9,23.7,29.98,NW,304,1.0,2.0,84,0.00,CLR,CLR,0.00,WeatherDisplay:10.34,2013-11-02 11:12:00,
2013-11-02 05:17:00,27.9,23.7,29.98,NW,304,0.0,1.0,84,0.00,CLR,CLR,0.00,WeatherDisplay:10.34,2013-11-02 11:17:00,
2013-11-02 05:22:00,27.9,23.7,29.98,NW,304,1.0,1.0,84,0.00,CLR,CLR,0.00,WeatherDisplay:10.34,2013-11-02 11:22:00,
2013-11-02 05:27:00,27.8,23.3,29.98,NW,304,1.0,2.0,83,0.00,CLR,CLR,0.00,WeatherDisplay:10.34,2013-11-02 11:27:00,
2013-11-02 05:32:00,27.8,23.6,29.98,NW,304,3.0,5.0,84,0.00,CLR,CLR,0.00,WeatherDisplay:10.34,2013-11-02 11:32:00,
2013-11-02 05:37:00,27.7,23.2,29.98,NW,304,2.0,2.0,83,0.00,CLR,CLR,0.00,WeatherDisplay:10.34,2013-11-02 11:37:00,
2013-11-02 05:42:00,27.6,23.1,29.98,NW,304,3.0,3.0,83,0.00,CLR,CLR,0.00,WeatherDisplay:10.34,2013-11-02 11:42:00,
2013-11-02 05:47:00,27.5,23.0,29.97,NW,304,4.0,4.0,83,0.00,CLR,CLR,0.00,WeatherDisplay:10.34,2013-11-02 11:47:00,
2013-11-02 05:52:00,27.6,23.4,29.97,NW,304,1.0,1.0,84,0.00,CLR,CLR,0.00,WeatherDisplay:10.34,2013-11-02 11:52:00,
2013-11-02 05:57:00,27.6,23.4,29.97,NW,304,2.0,2.0,84,0.00,CLR,CLR,0.00,WeatherDisplay:10.34,2013-11-02 11:57:00,
2013-11-02 06:02:00,27.5,23.3,29.97,NW,304,1.0,2.0,84,0.00,,,0.00,WeatherDisplay:10.34,2013-11-02 12:02:00,
2013-11-02 06:07:00,27.4,23.2,29.97,NW,304,0.0,0.0,84,0.00,,,0.00,WeatherDisplay:10.34,2013-11-02 12:07:00,
2013-11-02 06:12:00,27.3,23.1,29.96,NW,304,2.0,2.0,84,0.00,,,0.00,WeatherDisplay:10.34,2013-11-02 12:12:00,
2013-11-02 06:17:00,27.2,23.0,29.95,NW,304,2.0,2.0,84,0.00,,,0.00,WeatherDisplay:10.34,2013-11-02 12:17:00,
2013-11-02 06:22:00,27.2,23.0,29.95,NW,304,3.0,3.0,84,0.00,,,0.00,WeatherDisplay:10.34,2013-11-02 12:22:00,
2013-11-02 06:27:00,27.0,22.8,29.95,NW,305,4.0,4.0,84,0.00,,,0.00,WeatherDisplay:10.34,2013-11-02 12:27:00,
2013-11-02 06:32:00,26.8,22.6,29.95,NW,304,1.0,2.0,84,0.00,,,0.00,WeatherDisplay:10.34,2013-11-02 12:32:00,
2013-11-02 06:37:00,26.7,22.5,29.96,NW,305,1.0,1.0,84,0.00,,,0.00,WeatherDisplay:10.34,2013-11-02 12:37:00,
2013-11-02 06:42:00,26.7,22.8,29.95,NW,305,2.0,2.0,85,0.00,,,0.00,WeatherDisplay:10.34,2013-11-02 12:42:00,
2013-11-02 06:47:00,26.7,22.8,29.95,NW,305,3.0,3.0,85,0.00,,,0.00,WeatherDisplay:10.34,2013-11-02 12:47:00,
2013-11-02 06:52:00,27.0,23.4,29.95,NW,305,6.0,7.0,86,0.00,,,0.00,WeatherDisplay:10.34,2013-11-02 12:52:00,
2013-11-02 06:57:00,27.2,23.3,29.95,NW,305,4.0,4.0,85,0.00,,,0.00,WeatherDisplay:10.34,2013-11-02 12:57:00,
2013-11-02 07:02:00,27.1,23.2,29.95,NW,305,1.0,2.0,85,0.00,OVC,OVC,0.00,WeatherDisplay:10.34,2013-11-02 13:02:00,
2013-11-02 07:07:00,27.0,23.1,29.95,NW,304,2.0,2.0,85,0.00,OVC,OVC,0.00,WeatherDisplay:10.34,2013-11-02 13:07:00,
2013-11-02 07:12:00,26.9,23.0,29.94,NW,305,3.0,3.0,85,0.00,OVC,OVC,0.00,WeatherDisplay:10.34,2013-11-02 13:12:00,
2013-11-02 07:17:00,26.9,23.0,29.94,NW,304,1.0,2.0,85,0.00,OVC,OVC,0.00,WeatherDisplay:10.34,2013-11-02 13:17:00,
2013-11-02 07:22:00,26.9,23.0,29.94,NW,305,3.0,3.0,85,0.00,OVC,OVC,0.00,WeatherDisplay:10.34,2013-11-02 13:22:00,
2013-11-02 07:27:00,26.9,23.0,29.94,NW,305,1.0,1.0,85,0.00,OVC,OVC,0.00,WeatherDisplay:10.34,2013-11-02 13:27:00,
2013-11-02 07:32:00,26.9,23.0,29.93,NW,305,0.0,0.0,85,0.00,OVC,OVC,0.00,WeatherDisplay:10.34,2013-11-02 13:32:00,
2013-11-02 07:37:00,26.9,23.0,29.93,NW,305,1.0,2.0,85,0.00,OVC,OVC,0.00,WeatherDisplay:10.34,2013-11-02 13:37:00,
2013-11-02 07:42:00,26.9,23.0,29.93,NW,305,0.0,1.0,85,0.00,OVC,OVC,0.00,WeatherDisplay:10.34,2013-11-02 13:42:00,
2013-11-02 07:47:00,26.9,23.0,29.93,NW,304,2.0,2.0,85,0.00,OVC,OVC,0.00,WeatherDisplay:10.34,2013-11-02 13:47:00,
2013-11-02 07:52:00,26.9,23.0,29.92,NW,305,2.0,2.0,85,0.00,OVC,OVC,0.00,WeatherDisplay:10.34,2013-11-02 13:52:00,
2013-11-02 07:57:00,27.0,23.4,29.92,NW,305,1.0,1.0,86,0.00,OVC,OVC,0.00,WeatherDisplay:10.34,2013-11-02 13:57:00,
2013-11-02 08:02:00,27.2,23.6,29.92,NW,304,1.0,2.0,86,0.00,OVC,OVC,0.00,WeatherDisplay:10.34,2013-11-02 14:02:00,
2013-11-02 08:07:00,27.4,23.8,29.92,NW,304,4.0,5.0,86,0.00,OVC,OVC,0.00,WeatherDisplay:10.34,2013-11-02 14:07:00,
2013-11-02 08:12:00,27.8,24.2,29.91,NW,305,3.0,3.0,86,0.00,OVC,OVC,0.00,WeatherDisplay:10.34,2013-11-02 14:12:00,
2013-11-02 08:17:00,28.0,24.4,29.91,NW,304,0.0,1.0,86,0.00,OVC,OVC,0.00,WeatherDisplay:10.34,2013-11-02 14:17:00,
2013-11-02 08:22:00,28.1,24.5,29.91,NW,305,0.0,0.0,86,0.00,OVC,OVC,0.00,WeatherDisplay:10.34,2013-11-02 14:22:00,
2013-11-02 08:27:00,28.2,24.6,29.91,NW,305,0.0,1.0,86,0.00,OVC,OVC,0.00,WeatherDisplay:10.34,2013-11-02 14:27:00,
2013-11-02 08:32:00,28.4,24.7,29.91,NW,305,3.0,3.0,86,0.00,OVC,OVC,0.00,WeatherDisplay:10.34,2013-11-02 14:32:00,
2013-11-02 08:37:00,28.8,25.1,29.91,NW,305,0.0,1.0,86,0.00,CLR,CLR,0.00,WeatherDisplay:10.34,2013-11-02 14:37:00,
2013-11-02 08:42:00,29.0,25.3,29.91,NW,305,0.0,1.0,86,0.00,CLR,CLR,0.00,WeatherDisplay:10.34,2013-11-02 14:42:00,
2013-11-02 08:47:00,29.3,25.4,29.91,NW,305,0.0,1.0,85,0.00,CLR,CLR,0.00,WeatherDisplay:10.34,2013-11-02 14:47:00,
2013-11-02 08:52:00,29.5,25.8,29.91,NW,305,0.0,0.0,86,0.00,CLR,CLR,0.00,WeatherDisplay:10.34,2013-11-02 14:52:00,
2013-11-02 08:57:00,29.8,25.8,29.91,NW,305,0.0,1.0,85,0.00,CLR,CLR,0.00,WeatherDisplay:10.34,2013-11-02 14:57:00,
2013-11-02 09:02:00,30.2,26.2,29.91,NW,304,0.0,0.0,85,0.00,CLR,CLR,0.00,WeatherDisplay:10.34,2013-11-02 15:02:00,
2013-11-02 09:07:00,30.8,26.8,29.91,NW,305,0.0,0.0,85,0.00,CLR,CLR,0.00,WeatherDisplay:10.34,2013-11-02 15:07:00,
2013-11-02 09:12:00,31.7,27.7,29.91,NW,305,3.0,3.0,85,0.00,CLR,CLR,0.00,WeatherDisplay:10.34,2013-11-02 15:12:00,
2013-11-02 09:17:00,32.6,28.3,29.91,NW,304,2.0,2.0,84,0.00,CLR,CLR,0.00,WeatherDisplay:10.34,2013-11-02 15:17:00,
2013-11-02 09:22:00,33.3,28.7,29.91,NW,305,4.0,4.0,83,0.00,CLR,CLR,0.00,WeatherDisplay:10.34,2013-11-02 15:22:00,
2013-11-02 09:27:00,34.1,28.9,29.91,NNE,29,0.0,0.0,81,0.00,CLR,CLR,0.00,WeatherDisplay:10.34,2013-11-02 15:27:00,
2013-11-02 09:32:00,34.6,28.8,29.90,NNE,13,1.0,1.0,79,0.00,CLR,CLR,0.00,WeatherDisplay:10.34,2013-11-02 15:32:00,
2013-11-02 09:37:00,35.3,28.8,29.90,NNE,14,1.0,2.0,77,0.00,CLR,CLR,0.00,WeatherDisplay:10.34,2013-11-02 15:37:00,
2013-11-02 09:42:00,35.8,29.0,29.90,NNW,345,4.0,4.0,76,0.00,CLR,CLR,0.00,WeatherDisplay:10.34,2013-11-02 15:42:00,
2013-11-02 09:47:00,36.1,28.9,29.89,North,355,6.0,7.0,75,0.00,CLR,CLR,0.00,WeatherDisplay:10.34,2013-11-02 15:47:00,
2013-11-02 09:52:00,36.3,28.5,29.89,NNW,338,5.0,7.0,73,0.00,CLR,CLR,0.00,WeatherDisplay:10.34,2013-11-02 15:52:00,
2013-11-02 09:57:00,36.5,28.7,29.89,NNE,21,4.0,5.0,73,0.00,CLR,CLR,0.00,WeatherDisplay:10.34,2013-11-02 15:57:00,
2013-11-02 10:02:00,37.0,29.5,29.89,NNW,347,4.0,4.0,74,0.00,CLR,CLR,0.00,WeatherDisplay:10.34,2013-11-02 16:02:00,
2013-11-02 10:07:00,37.5,29.3,29.89,NE,49,5.0,5.0,72,0.00,CLR,CLR,0.00,WeatherDisplay:10.34,2013-11-02 16:07:00,
2013-11-02 10:12:00,37.9,29.3,29.89,NNW,347,3.0,3.0,71,0.00,CLR,CLR,0.00,WeatherDisplay:10.34,2013-11-02 16:12:00,
2013-11-02 10:17:00,38.2,29.3,29.89,North,355,5.0,5.0,70,0.00,CLR,CLR,0.00,WeatherDisplay:10.34,2013-11-02 16:17:00,
2013-11-02 10:22:00,38.8,29.8,29.87,NE,40,4.0,5.0,70,0.00,CLR,CLR,0.00,WeatherDisplay:10.34,2013-11-02 16:22:00,
2013-11-02 10:27:00,39.3,30.0,29.87,ENE,63,2.0,2.0,69,0.00,CLR,CLR,0.00,WeatherDisplay:10.34,2013-11-02 16:27:00,
2013-11-02 10:32:00,39.9,30.5,29.86,NNE,26,4.0,8.0,69,0.00,CLR,CLR,0.00,WeatherDisplay:10.34,2013-11-02 16:32:00,
2013-11-02 10:37:00,40.4,30.7,29.86,NNE,25,7.0,8.0,68,0.00,CLR,CLR,0.00,WeatherDisplay:10.34,2013-11-02 16:37:00,
2013-11-02 10:42:00,40.6,30.5,29.86,NE,42,4.0,5.0,67,0.00,CLR,CLR,0.00,WeatherDisplay:10.34,2013-11-02 16:42:00,
2013-11-02 10:47:00,41.1,30.6,29.86,ENE,58,6.0,9.0,66,0.00,CLR,CLR,0.00,WeatherDisplay:10.34,2013-11-02 16:47:00,
2013-11-02 10:52:00,42.0,30.7,29.85,NE,40,5.0,7.0,64,0.00,CLR,CLR,0.00,WeatherDisplay:10.34,2013-11-02 16:52:00,
2013-11-02 10:57:00,42.7,31.4,29.85,NE,45,4.0,5.0,64,0.00,CLR,CLR,0.00,WeatherDisplay:10.34,2013-11-02 16:57:00,
2013-11-02 11:02:00,43.2,30.6,29.85,NNE,26,8.0,10.0,61,0.00,CLR,CLR,0.00,WeatherDisplay:10.34,2013-11-02 17:02:00,
2013-11-02 11:07:00,43.3,30.7,29.85,NNE,24,6.0,7.0,61,0.00,CLR,CLR,0.00,WeatherDisplay:10.34,2013-11-02 17:07:00,
2013-11-02 11:12:00,43.3,30.7,29.84,NE,41,8.0,8.0,61,0.00,CLR,CLR,0.00,WeatherDisplay:10.34,2013-11-02 17:12:00,
2013-11-02 11:17:00,43.7,31.1,29.84,North,11,5.0,5.0,61,0.00,CLR,CLR,0.00,WeatherDisplay:10.34,2013-11-02 17:17:00,
2013-11-02 11:22:00,44.5,31.5,29.84,NNE,30,5.0,8.0,60,0.00,CLR,CLR,0.00,WeatherDisplay:10.34,2013-11-02 17:22:00,
2013-11-02 11:27:00,44.6,31.1,29.84,NNW,348,6.0,7.0,59,0.00,CLR,CLR,0.00,WeatherDisplay:10.34,2013-11-02 17:27:00,
2013-11-02 11:32:00,44.6,31.6,29.84,North,355,5.0,10.0,60,0.00,CLR,CLR,0.00,WeatherDisplay:10.34,2013-11-02 17:32:00,
2013-11-02 11:37:00,45.0,31.5,29.83,NNE,30,5.0,7.0,59,0.00,CLR,CLR,0.00,WeatherDisplay:10.34,2013-11-02 17:37:00,
2013-11-02 11:42:00,45.9,31.1,29.83,NE,34,11.0,12.0,56,0.00,CLR,CLR,0.00,WeatherDisplay:10.34,2013-11-02 17:42:00,
2013-11-02 11:47:00,46.5,31.6,29.82,East,82,12.0,13.0,56,0.00,CLR,CLR,0.00,WeatherDisplay:10.34,2013-11-02 17:47:00,
2013-11-02 11:52:00,47.0,32.1,29.82,NNE,32,10.0,13.0,56,0.00,CLR,CLR,0.00,WeatherDisplay:10.34,2013-11-02 17:52:00,
2013-11-02 11:57:00,46.6,31.3,29.82,NE,41,8.0,10.0,55,0.00,CLR,CLR,0.00,WeatherDisplay:10.34,2013-11-02 17:57:00,
2013-11-02 12:02:00,46.8,31.5,29.82,ENE,61,12.0,14.0,55,0.00,CLR,CLR,0.00,WeatherDisplay:10.34,2013-11-02 18:02:00,
2013-11-02 12:07:00,47.2,31.8,29.82,East,83,14.0,15.0,55,0.00,CLR,CLR,0.00,WeatherDisplay:10.34,2013-11-02 18:07:00,
2013-11-02 12:12:00,47.6,31.8,29.79,East,90,15.0,15.0,54,0.00,CLR,CLR,0.00,WeatherDisplay:10.34,2013-11-02 18:12:00,
2013-11-02 12:17:00,47.7,31.9,29.79,East,80,15.0,17.0,54,0.00,CLR,CLR,0.00,WeatherDisplay:10.34,2013-11-02 18:17:00,
2013-11-02 12:22:00,48.0,32.1,29.78,ENE,64,13.0,13.0,54,0.00,CLR,CLR,0.00,WeatherDisplay:10.34,2013-11-02 18:22:00,
2013-11-02 12:27:00,48.7,32.3,29.78,ENE,76,13.0,13.0,53,0.00,CLR,CLR,0.00,WeatherDisplay:10.34,2013-11-02 18:27:00,
2013-11-02 12:32:00,49.2,31.8,29.78,ESE,105,12.0,12.0,51,0.00,CLR,CLR,0.00,WeatherDisplay:10.34,2013-11-02 18:32:00,
2013-11-02 12:37:00,49.4,31.5,29.78,East,91,15.0,16.0,50,0.00,CLR,CLR,0.00,WeatherDisplay:10.34,2013-11-02 18:37:00,
2013-11-02 12:42:00,49.3,31.9,29.78,East,84,10.0,13.0,51,0.00,CLR,CLR,0.00,WeatherDisplay:10.34,2013-11-02 18:42:00,
2013-11-02 12:47:00,49.4,32.0,29.78,East,92,8.0,9.0,51,0.00,CLR,CLR,0.00,WeatherDisplay:10.34,2013-11-02 18:47:00,
2013-11-02 12:52:00,49.5,31.6,29.77,East,83,16.0,16.0,50,0.00,CLR,CLR,0.00,WeatherDisplay:10.34,2013-11-02 18:52:00,
2013-11-02 12:57:00,49.4,32.0,29.77,East,97,9.0,12.0,51,0.00,CLR,CLR,0.00,WeatherDisplay:10.34,2013-11-02 18:57:00,
2013-11-02 13:02:00,49.6,31.7,29.77,ESE,110,15.0,15.0,50,0.00,CLR,CLR,0.00,WeatherDisplay:10.34,2013-11-02 19:02:00,
2013-11-02 13:07:00,49.4,31.5,29.77,East,93,18.0,18.0,50,0.00,CLR,CLR,0.00,WeatherDisplay:10.34,2013-11-02 19:07:00,
2013-11-02 13:12:00,49.4,31.5,29.75,East,81,12.0,12.0,50,0.00,CLR,CLR,0.00,WeatherDisplay:10.34,2013-11-02 19:12:00,
2013-11-02 13:17:00,49.8,32.4,29.75,ENE,78,9.0,10.0,51,0.00,CLR,CLR,0.00,WeatherDisplay:10.34,2013-11-02 19:17:00,
2013-11-02 13:22:00,50.3,32.8,29.75,ENE,78,7.0,7.0,51,0.00,CLR,CLR,0.00,WeatherDisplay:10.34,2013-11-02 19:22:00,
2013-11-02 13:27:00,50.8,32.3,29.75,East,84,11.0,12.0,49,0.00,CLR,CLR,0.00,WeatherDisplay:10.34,2013-11-02 19:27:00,
2013-11-02 13:32:00,51.3,32.3,29.73,ESE,104,12.0,12.0,48,0.00,CLR,CLR,0.00,WeatherDisplay:10.34,2013-11-02 19:32:00,
2013-11-02 13:37:00,51.8,30.6,29.73,ESE,105,15.0,15.0,44,0.00,CLR,CLR,0.00,WeatherDisplay:10.34,2013-11-02 19:37:00,
2013-11-02 13:42:00,51.6,29.8,29.72,East,80,18.0,18.0,43,0.00,CLR,CLR,0.00,WeatherDisplay:10.34,2013-11-02 19:42:00,
2013-11-02 13:47:00,51.8,30.0,29.72,ESE,106,12.0,13.0,43,0.00,CLR,CLR,0.00,WeatherDisplay:10.34,2013-11-02 19:47:00,
2013-11-02 13:52:00,52.2,29.8,29.72,ESE,109,16.0,16.0,42,0.00,CLR,CLR,0.00,WeatherDisplay:10.34,2013-11-02 19:52:00,
2013-11-02 13:57:00,52.2,30.4,29.72,ESE,109,14.0,16.0,43,0.00,CLR,CLR,0.00,WeatherDisplay:10.34,2013-11-02 19:57:00,
2013-11-02 14:02:00,52.1,30.3,29.72,East,96,15.0,15.0,43,0.00,CLR,CLR,0.00,WeatherDisplay:10.34,2013-11-02 20:02:00,
2013-11-02 14:07:00,52.0,30.2,29.72,East,101,14.0,14.0,43,0.00,CLR,CLR,0.00,WeatherDisplay:10.34,2013-11-02 20:07:00,
2013-11-02 14:12:00,52.2,30.9,29.71,East,99,12.0,12.0,44,0.00,CLR,CLR,0.00,WeatherDisplay:10.34,2013-11-02 20:12:00,
2013-11-02 14:17:00,52.3,31.0,29.70,SE,146,14.0,14.0,44,0.00,CLR,CLR,0.00,WeatherDisplay:10.34,2013-11-02 20:17:00,
2013-11-02 14:22:00,52.2,31.5,29.70,East,98,14.0,14.0,45,0.00,CLR,CLR,0.00,WeatherDisplay:10.34,2013-11-02 20:22:00,
2013-11-02 14:27:00,52.3,31.6,29.70,ENE,72,12.0,12.0,45,0.00,CLR,CLR,0.00,WeatherDisplay:10.34,2013-11-02 20:27:00,
2013-11-02 14:32:00,52.3,32.1,29.69,SE,136,15.0,15.0,46,0.00,CLR,CLR,0.00,WeatherDisplay:10.34,2013-11-02 20:32:00,
2013-11-02 14:37:00,52.4,31.7,29.69,East,101,16.0,16.0,45,0.00,CLR,CLR,0.00,WeatherDisplay:10.34,2013-11-02 20:37:00,
2013-11-02 14:42:00,52.3,31.6,29.68,SE,130,17.0,17.0,45,0.00,CLR,CLR,0.00,WeatherDisplay:10.34,2013-11-02 20:42:00,
2013-11-02 14:47:00,52.4,31.1,29.68,ESE,111,16.0,16.0,44,0.00,CLR,CLR,0.00,WeatherDisplay:10.34,2013-11-02 20:47:00,
2013-11-02 14:52:00,52.4,32.2,29.67,ESE,102,17.0,17.0,46,0.00,CLR,CLR,0.00,WeatherDisplay:10.34,2013-11-02 20:52:00,
2013-11-02 14:57:00,52.2,32.0,29.67,ESE,119,20.0,20.0,46,0.00,CLR,CLR,0.00,WeatherDisplay:10.34,2013-11-02 20:57:00,
2013-11-02 15:02:00,52.4,32.2,29.67,East,93,16.0,16.0,46,0.00,CLR,CLR,0.00,WeatherDisplay:10.34,2013-11-02 21:02:00,
2013-11-02 15:07:00,52.7,31.9,29.67,ESE,117,17.0,17.0,45,0.00,CLR,CLR,0.00,WeatherDisplay:10.34,2013-11-02 21:07:00,
2013-11-02 15:12:00,52.9,32.1,29.66,ENE,67,12.0,12.0,45,0.00,CLR,CLR,0.00,WeatherDisplay:10.34,2013-11-02 21:12:00,
2013-11-02 15:17:00,53.1,32.3,29.66,East,95,18.0,18.0,45,0.00,CLR,CLR,0.00,WeatherDisplay:10.34,2013-11-02 21:17:00,
2013-11-02 15:22:00,53.0,31.6,29.66,ESE,102,16.0,16.0,44,0.00,CLR,CLR,0.00,WeatherDisplay:10.34,2013-11-02 21:22:00,
2013-11-02 15:27:00,53.1,31.2,29.65,ESE,117,20.0,20.0,43,0.00,CLR,CLR,0.00,WeatherDisplay:10.34,2013-11-02 21:27:00,
2013-11-02 15:32:00,53.3,31.4,29.65,ESE,104,16.0,17.0,43,0.00,CLR,CLR,0.00,WeatherDisplay:10.34,2013-11-02 21:32:00,
2013-11-02 15:37:00,53.3,30.8,29.65,East,91,21.0,21.0,42,0.00,CLR,CLR,0.00,WeatherDisplay:10.34,2013-11-02 21:37:00,
2013-11-02 15:42:00,53.4,30.9,29.65,SE,140,14.0,14.0,42,0.00,CLR,CLR,0.00,WeatherDisplay:10.34,2013-11-02 21:42:00,
2013-11-02 15:47:00,53.4,30.3,29.65,ESE,112,19.0,20.0,41,0.00,CLR,CLR,0.00,WeatherDisplay:10.34,2013-11-02 21:47:00,
2013-11-02 15:52:00,53.4,30.3,29.64,SE,126,17.0,17.0,41,0.00,CLR,CLR,0.00,WeatherDisplay:10.34,2013-11-02 21:52:00,
2013-11-02 15:57:00,53.3,30.8,29.64,SE,130,15.0,16.0,42,0.00,CLR,CLR,0.00,WeatherDisplay:10.34,2013-11-02 21:57:00,
2013-11-02 16:02:00,53.3,31.4,29.64,East,101,17.0,17.0,43,0.00,CLR,CLR,0.00,WeatherDisplay:10.34,2013-11-02 22:02:00,
2013-11-02 16:07:00,53.4,30.9,29.64,ESE,113,16.0,16.0,42,0.00,CLR,CLR,0.00,WeatherDisplay:10.34,2013-11-02 22:07:00,
2013-11-02 16:12:00,53.4,30.9,29.63,ESE,122,12.0,14.0,42,0.00,CLR,CLR,0.00,WeatherDisplay:10.34,2013-11-02 22:12:00,
2013-11-02 16:17:00,53.6,30.4,29.63,ESE,117,12.0,12.0,41,0.00,CLR,CLR,0.00,WeatherDisplay:10.34,2013-11-02 22:17:00,
2013-11-02 16:22:00,53.6,29.8,29.63,SE,129,14.0,14.0,40,0.00,CLR,CLR,0.00,WeatherDisplay:10.34,2013-11-02 22:22:00,
2013-11-02 16:27:00,53.7,29.9,29.63,ESE,119,16.0,16.0,40,0.00,CLR,CLR,0.00,WeatherDisplay:10.34,2013-11-02 22:27:00,
2013-11-02 16:32:00,53.8,30.6,29.62,ENE,75,15.0,16.0,41,0.00,CLR,CLR,0.00,WeatherDisplay:10.34,2013-11-02 22:32:00,
2013-11-02 16:37:00,53.7,29.9,29.63,ESE,117,12.0,14.0,40,0.00,CLR,CLR,0.00,WeatherDisplay:10.34,2013-11-02 22:37:00,
2013-11-02 16:42:00,53.6,30.4,29.62,East,97,13.0,14.0,41,0.00,CLR,CLR,0.00,WeatherDisplay:10.34,2013-11-02 22:42:00,
2013-11-02 16:47:00,53.6,30.4,29.62,ESE,123,13.0,13.0,41,0.00,CLR,CLR,0.00,WeatherDisplay:10.34,2013-11-02 22:47:00,
2013-11-02 16:52:00,53.5,30.4,29.62,East,101,14.0,16.0,41,0.00,CLR,CLR,0.00,WeatherDisplay:10.34,2013-11-02 22:52:00,
2013-11-02 16:57:00,53.3,30.8,29.62,ESE,115,13.0,13.0,42,0.00,CLR,CLR,0.00,WeatherDisplay:10.34,2013-11-02 22:57:00,
2013-11-02 17:02:00,53.0,30.5,29.62,SE,134,16.0,16.0,42,0.00,CLR,CLR,0.00,WeatherDisplay:10.34,2013-11-02 23:02:00,
2013-11-02 17:07:00,52.8,30.3,29.62,ESE,114,13.0,15.0,42,0.00,CLR,CLR,0.00,WeatherDisplay:10.34,2013-11-02 23:07:00,
2013-11-02 17:12:00,52.7,30.2,29.60,SE,133,13.0,13.0,42,0.00,CLR,CLR,0.00,WeatherDisplay:10.34,2013-11-02 23:12:00,
2013-11-02 17:17:00,52.6,30.1,29.60,SE,125,12.0,12.0,42,0.00,FEW,FEW,0.00,WeatherDisplay:10.34,2013-11-02 23:17:00,
2013-11-02 17:22:00,52.4,30.0,29.60,ESE,102,9.0,9.0,42,0.00,FEW,FEW,0.00,WeatherDisplay:10.34,2013-11-02 23:22:00,
2013-11-02 17:27:00,52.3,29.9,29.60,East,94,14.0,15.0,42,0.00,FEW,FEW,0.00,WeatherDisplay:10.34,2013-11-02 23:27:00,
2013-11-02 17:32:00,52.2,29.8,29.60,ESE,107,11.0,12.0,42,0.00,SCT,SCT,0.00,WeatherDisplay:10.34,2013-11-02 23:32:00,
2013-11-02 17:37:00,52.1,29.7,29.60,East,90,8.0,9.0,42,0.00,SCT,SCT,0.00,WeatherDisplay:10.34,2013-11-02 23:37:00,
2013-11-02 17:42:00,51.9,30.1,29.60,East,88,6.0,9.0,43,0.00,OVC,OVC,0.00,WeatherDisplay:10.34,2013-11-02 23:42:00,
2013-11-02 17:47:00,51.6,29.8,29.60,East,101,11.0,12.0,43,0.00,OVC,OVC,0.00,WeatherDisplay:10.34,2013-11-02 23:47:00,
2013-11-02 17:52:00,51.4,29.6,29.59,ENE,74,7.0,8.0,43,0.00,OVC,OVC,0.00,WeatherDisplay:10.34,2013-11-02 23:52:00,
2013-11-02 17:57:00,51.1,29.4,29.59,ENE,75,3.0,9.0,43,0.00,OVC,OVC,0.00,WeatherDisplay:10.34,2013-11-02 23:57:00,
2013-11-02 18:02:00,50.8,29.6,29.59,East,79,7.0,9.0,44,0.00,OVC,OVC,0.00,WeatherDisplay:10.34,2013-11-03 00:02:00,
2013-11-02 18:07:00,50.5,29.4,29.59,East,80,5.0,5.0,44,0.00,OVC,OVC,0.00,WeatherDisplay:10.34,2013-11-03 00:07:00,
2013-11-02 18:12:00,50.3,29.7,29.59,ENE,78,2.0,3.0,45,0.00,OVC,OVC,0.00,WeatherDisplay:10.34,2013-11-03 00:12:00,
2013-11-02 18:17:00,50.1,29.6,29.59,ENE,78,2.0,2.0,45,0.00,OVC,OVC,0.00,WeatherDisplay:10.34,2013-11-03 00:17:00,
2013-11-02 18:22:00,49.9,29.4,29.59,ENE,78,0.0,0.0,45,0.00,OVC,OVC,0.00,WeatherDisplay:10.34,2013-11-03 00:22:00,
2013-11-02 18:27:00,49.6,29.1,29.59,ENE,78,2.0,2.0,45,0.00,OVC,OVC,0.00,WeatherDisplay:10.34,2013-11-03 00:27:00,
2013-11-02 18:32:00,49.2,29.3,29.59,ENE,78,0.0,1.0,46,0.00,OVC,OVC,0.00,WeatherDisplay:10.34,2013-11-03 00:32:00,
2013-11-02 18:37:00,48.0,29.2,29.59,NW,315,4.0,4.0,48,0.00,OVC,OVC,0.00,WeatherDisplay:10.34,2013-11-03 00:37:00,
2013-11-02 18:42:00,46.8,28.6,29.59,NW,315,2.0,2.0,49,0.00,OVC,OVC,0.00,WeatherDisplay:10.34,2013-11-03 00:42:00,
2013-11-02 18:47:00,45.7,28.6,29.59,NNW,331,5.0,5.0,51,0.00,OVC,OVC,0.00,WeatherDisplay:10.34,2013-11-03 00:47:00,
2013-11-02 18:52:00,44.9,28.3,29.59,NW,313,1.0,2.0,52,0.00,OVC,OVC,0.00,WeatherDisplay:10.34,2013-11-03 00:52:00,
2013-11-02 18:57:00,44.1,28.0,29.59,NW,314,2.0,3.0,53,0.00,OVC,OVC,0.00,WeatherDisplay:10.34,2013-11-03 00:57:00,
2013-11-02 19:02:00,43.6,28.0,29.59,West,269,2.0,3.0,54,0.00,CLR,CLR,0.00,WeatherDisplay:10.34,2013-11-03 01:02:00,
2013-11-02 19:07:00,43.3,28.2,29.59,West,270,1.0,5.0,55,0.00,CLR,CLR,0.00,WeatherDisplay:10.34,2013-11-03 01:07:00,
2013-11-02 19:12:00,43.1,28.0,29.59,West,275,2.0,2.0,55,0.00,CLR,CLR,0.00,WeatherDisplay:10.34,2013-11-03 01:12:00,
2013-11-02 19:17:00,43.1,28.0,29.59,West,277,2.0,2.0,55,0.00,CLR,CLR,0.00,WeatherDisplay:10.34,2013-11-03 01:17:00,
2013-11-02 19:22:00,43.2,28.1,29.59,West,277,1.0,1.0,55,0.00,CLR,CLR,0.00,WeatherDisplay:10.34,2013-11-03 01:22:00,
2013-11-02 19:27:00,43.3,28.2,29.59,West,277,3.0,3.0,55,0.00,CLR,CLR,0.00,WeatherDisplay:10.34,2013-11-03 01:27:00,
2013-11-02 19:32:00,43.2,28.1,29.58,WNW,299,1.0,1.0,55,0.00,CLR,CLR,0.00,WeatherDisplay:10.34,2013-11-03 01:32:00,
2013-11-02 19:37:00,43.2,27.7,29.58,WNW,299,2.0,2.0,54,0.00,CLR,CLR,0.00,WeatherDisplay:10.34,2013-11-03 01:37:00,
2013-11-02 19:42:00,43.3,27.8,29.58,WNW,299,0.0,1.0,54,0.00,CLR,CLR,0.00,WeatherDisplay:10.34,2013-11-03 01:42:00,
2013-11-02 19:47:00,43.2,28.1,29.58,WNW,299,1.0,1.0,55,0.00,CLR,CLR,0.00,WeatherDisplay:10.34,2013-11-03 01:47:00,
2013-11-02 19:52:00,42.9,27.8,29.58,WSW,249,1.0,1.0,55,0.00,CLR,CLR,0.00,WeatherDisplay:10.34,2013-11-03 01:52:00,
2013-11-02 19:57:00,42.7,27.6,29.58,SW,214,7.0,8.0,55,0.00,CLR,CLR,0.00,WeatherDisplay:10.34,2013-11-03 01:57:00,
2013-11-02 20:02:00,42.1,27.1,29.58,SSW,203,0.0,0.0,55,0.00,,,0.00,WeatherDisplay:10.34,2013-11-03 02:02:00,
2013-11-02 20:07:00,41.5,27.0,29.58,SSW,209,0.0,2.0,56,0.00,,,0.00,WeatherDisplay:10.34,2013-11-03 02:07:00,
2013-11-02 20:12:00,41.1,26.6,29.57,SSW,209,7.0,7.0,56,0.00,,,0.00,WeatherDisplay:10.34,2013-11-03 02:12:00,
2013-11-02 20:17:00,40.5,26.4,29.57,SW,216,6.0,7.0,57,0.00,,,0.00,WeatherDisplay:10.34,2013-11-03 02:17:00,
2013-11-02 20:22:00,39.8,26.2,29.56,SW,226,0.0,0.0,58,0.00,,,0.00,WeatherDisplay:10.34,2013-11-03 02:22:00,
2013-11-02 20:27:00,39.5,26.8,29.56,SW,226,4.0,4.0,60,0.00,,,0.00,WeatherDisplay:10.34,2013-11-03 02:27:00,
2013-11-02 20:32:00,39.1,26.4,29.56,SW,232,2.0,3.0,60,0.00,,,0.00,WeatherDisplay:10.34,2013-11-03 02:32:00,
2013-11-02 20:37:00,38.8,26.5,29.56,SW,233,0.0,0.0,61,0.00,,,0.00,WeatherDisplay:10.34,2013-11-03 02:37:00,
2013-11-02 20:42:00,38.6,26.3,29.56,SW,233,0.0,0.0,61,0.00,,,0.00,WeatherDisplay:10.34,2013-11-03 02:42:00,
2013-11-02 20:47:00,37.9,26.0,29.56,NW,325,3.0,3.0,62,0.00,,,0.00,WeatherDisplay:10.34,2013-11-03 02:47:00,
2013-11-02 20:52:00,37.2,26.5,29.56,NNW,331,7.0,8.0,65,0.00,,,0.00,WeatherDisplay:10.34,2013-11-03 02:52:00,
2013-11-02 20:57:00,36.8,26.5,29.56,NNW,336,4.0,4.0,66,0.00,,,0.00,WeatherDisplay:10.34,2013-11-03 02:57:00,
2013-11-02 21:02:00,36.7,26.4,29.56,NNW,336,0.0,0.0,66,0.00,,,0.00,WeatherDisplay:10.34,2013-11-03 03:02:00,
2013-11-02 21:07:00,36.6,26.3,29.55,NNW,336,0.0,0.0,66,0.00,,,0.00,WeatherDisplay:10.34,2013-11-03 03:07:00,
2013-11-02 21:12:00,36.6,26.3,29.55,NNW,336,0.0,0.0,66,0.00,,,0.00,WeatherDisplay:10.34,2013-11-03 03:12:00,
2013-11-02 21:17:00,36.6,26.3,29.55,NNW,336,0.0,0.0,66,0.00,,,0.00,WeatherDisplay:10.34,2013-11-03 03:17:00,
2013-11-02 21:22:00,36.4,26.1,29.55,SW,221,9.0,9.0,66,0.00,,,0.00,WeatherDisplay:10.34,2013-11-03 03:22:00,
2013-11-02 21:27:00,35.9,26.0,29.55,SW,223,4.0,4.0,67,0.00,,,0.00,WeatherDisplay:10.34,2013-11-03 03:27:00,
2013-11-02 21:32:00,35.7,25.8,29.55,SW,223,0.0,0.0,67,0.00,,,0.00,WeatherDisplay:10.34,2013-11-03 03:32:00,
2013-11-02 21:37:00,35.5,26.0,29.55,SW,223,3.0,3.0,68,0.00,,,0.00,WeatherDisplay:10.34,2013-11-03 03:37:00,
2013-11-02 21:42:00,35.4,25.9,29.55,SW,223,0.0,0.0,68,0.00,,,0.00,WeatherDisplay:10.34,2013-11-03 03:42:00,
2013-11-02 21:47:00,35.0,25.5,29.55,SW,222,1.0,2.0,68,0.00,,,0.00,WeatherDisplay:10.34,2013-11-03 03:47:00,
2013-11-02 21:52:00,34.7,25.2,29.55,SW,222,0.0,2.0,68,0.00,,,0.00,WeatherDisplay:10.34,2013-11-03 03:52:00,
2013-11-02 21:57:00,34.4,24.9,29.55,SW,222,0.0,1.0,68,0.00,,,0.00,WeatherDisplay:10.34,2013-11-03 03:57:00,
2013-11-02 22:01:00,34.4,25.3,29.54,SW,222,0.0,1.0,69,0.00,,,0.00,WeatherDisplay:10.34,2013-11-03 04:01:00,
2013-11-02 22:03:00,34.3,25.2,29.54,SW,222,3.0,3.0,69,0.00,,,0.00,WeatherDisplay:10.34,2013-11-03 04:03:00,
2013-11-02 22:04:00,34.3,25.2,29.54,SW,222,0.0,3.0,69,0.00,,,0.00,WeatherDisplay:10.34,2013-11-03 04:04:00,
2013-11-02 22:07:00,34.1,25.0,29.54,SSW,192,3.0,3.0,69,0.00,,,0.00,WeatherDisplay:10.34,2013-11-03 04:07:00,
2013-11-02 22:12:00,33.9,25.1,29.52,South,184,1.0,1.0,70,0.00,,,0.00,WeatherDisplay:10.34,2013-11-03 04:12:00,
2013-11-02 22:17:00,33.8,25.4,29.53,South,184,0.0,0.0,71,0.00,,,0.00,WeatherDisplay:10.34,2013-11-03 04:17:00,
2013-11-02 22:22:00,33.8,25.4,29.53,South,190,4.0,4.0,71,0.00,,,0.00,WeatherDisplay:10.34,2013-11-03 04:22:00,
2013-11-02 22:27:00,33.9,25.8,29.53,South,190,2.0,2.0,72,0.00,,,0.00,WeatherDisplay:10.34,2013-11-03 04:27:00,
2013-11-02 22:32:00,33.8,25.7,29.52,South,190,0.0,0.0,72,0.00,,,0.00,WeatherDisplay:10.34,2013-11-03 04:32:00,
2013-11-02 22:37:00,33.7,25.3,29.52,South,190,0.0,0.0,71,0.00,,,0.00,WeatherDisplay:10.34,2013-11-03 04:37:00,
2013-11-02 22:42:00,33.6,25.5,29.53,West,271,0.0,2.0,72,0.00,,,0.00,WeatherDisplay:10.34,2013-11-03 04:42:00,
2013-11-02 22:47:00,33.6,25.5,29.53,West,271,1.0,1.0,72,0.00,,,0.00,WeatherDisplay:10.34,2013-11-03 04:47:00,
2013-11-02 22:52:00,33.5,25.4,29.53,West,273,4.0,4.0,72,0.00,,,0.00,WeatherDisplay:10.34,2013-11-03 04:52:00,
2013-11-02 22:57:00,33.6,25.5,29.53,West,273,0.0,0.0,72,0.00,,,0.00,WeatherDisplay:10.34,2013-11-03 04:57:00,
2013-11-02 23:02:00,33.7,25.6,29.53,West,273,3.0,3.0,72,0.00,,,0.00,WeatherDisplay:10.34,2013-11-03 05:02:00,
2013-11-02 23:07:00,33.8,27.0,29.53,West,273,0.0,1.0,76,0.00,,,0.00,WeatherDisplay:10.34,2013-11-03 05:07:00,
2013-11-02 23:12:00,33.7,25.3,29.54,West,273,1.0,1.0,71,0.00,,,0.00,WeatherDisplay:10.34,2013-11-03 05:12:00,
2013-11-02 23:17:00,33.7,25.3,29.53,West,273,0.0,0.0,71,0.00,,,0.00,WeatherDisplay:10.34,2013-11-03 05:17:00,
2013-11-02 23:22:00,33.4,25.3,29.52,West,275,2.0,3.0,72,0.00,,,0.00,WeatherDisplay:10.34,2013-11-03 05:22:00,
2013-11-02 23:27:00,33.7,25.6,29.53,West,265,3.0,5.0,72,0.00,,,0.00,WeatherDisplay:10.34,2013-11-03 05:27:00,
2013-11-02 23:32:00,33.9,25.8,29.53,West,265,0.0,1.0,72,0.00,,,0.00,WeatherDisplay:10.34,2013-11-03 05:32:00,
2013-11-02 23:37:00,34.1,26.0,29.53,West,271,2.0,8.0,72,0.00,,,0.00,WeatherDisplay:10.34,2013-11-03 05:37:00,
2013-11-02 23:42:00,34.4,26.0,29.53,West,271,0.0,0.0,71,0.00,,,0.00,WeatherDisplay:10.34,2013-11-03 05:42:00,
2013-11-02 23:47:00,34.4,26.0,29.53,West,271,3.0,3.0,71,0.00,,,0.00,WeatherDisplay:10.34,2013-11-03 05:47:00,
2013-11-02 23:52:00,34.5,26.1,29.53,West,273,8.0,10.0,71,0.00,,,0.00,WeatherDisplay:10.34,2013-11-03 05:52:00,
2013-11-02 23:57:00,35.2,26.4,29.53,West,268,5.0,5.0,70,0.00,,,0.00,WeatherDisplay:10.34,2013-11-03 05:57:00,